BEIDOU-2 G6

Last updated on Tue Jul 01 2025 00:02:45 GMT+0000 (Coordinated Universal Time)

1 38953U 12059A 25181.58455034 -.00000177 00000+0 00000+0 0 9990 2 38953 3.5276 77.2116 0008935 321.0959 175.0381 1.00270013 46381
UTC large
Height (km)
Speed (km/s)
/
Latitude / Longitude
Inclination (degrees)
Orbital Period (minutes)
Azimuth
Elevation
Range (km)
Doppler Factor

Next 0 passes for location: London (51.5072 / 0.1276)

Sorry there are no passes over London.